#timestamp,LO_Frequency,Hit 
1500364815.8,286046966.6,N
1500364835.6,286046968.9,N
1500364855.5,286046964.5,N
1500364875.3,286046964.5,N
1500364895.1,286046965.5,N
1500364915.9,286046963.2,N
1500364935.7,286046964.6,N
1500364955.5,286046965.1,N
1500364975.4,286046964.6,N
1500364995.2,286046966.1,N
1500365015.0,286046968.6,N
1500365015.9,286046968.6,N
1500365035.8,286046967.0,N
1500365055.6,286046967.0,N
1500365075.4,286046964.5,N
1500365095.2,286046963.8,N
1500365115.1,286046964.2,N
1500365116.0,286046964.2,N
1500365135.8,286046959.8,N
1500365155.6,286046964.4,N
1500365175.5,286046960.7,N
1500365195.3,286046958.1,N
1500365215.1,286046959.9,N
1500365235.9,286046958.3,N
1500365255.7,286046958.6,N
1500365275.5,286046959.5,N
1500365295.4,286046958.7,N
1500365315.2,286046959.4,N
1500365335.0,286046958.8,N
1500365335.9,286046958.8,N
1500365355.8,286046956.6,N
1500365375.6,286046959.1,N
1500365395.4,286046959.2,N
1500365415.3,286046959.1,N
1500365435.1,286046957.8,N
1500365436.0,286046957.8,N
1500365455.8,286046955.1,N
1500365475.7,286046953.3,N
1500365495.5,286046955.0,N
1500365515.3,286046955.2,N
1500365535.2,286046953.4,N
1500365555.9,286046954.5,N
1500365575.7,286046956.4,N
1500365595.6,286046954.8,N
1500365615.4,286046952.8,N
1500365635.2,286046954.4,N
1500365655.0,286046954.3,N
1500365656.0,286046954.3,N
1500365675.8,286046951.2,N
1500365695.6,286046951.3,N
1500365715.4,286046951.0,N
1500365735.3,286046951.1,N
1500365755.1,286046950.2,N
1500365775.8,286046951.0,N
1500365795.7,286046952.5,N
1500365815.5,286046952.9,N
1500365835.3,286046953.0,N
1500365855.2,286046950.2,N
1500365875.0,286046950.9,N
1500365875.9,286046950.9,N
1500365895.7,286046951.1,N
1500365915.6,286046949.4,N
1500365935.4,286046949.4,N
1500365955.2,286046947.8,N
1500365975.1,286046949.5,N
1500365976.0,286046949.5,N
1500365995.8,286046947.9,N
1500366015.6,286046945.4,N
1500366035.5,286046947.5,N
1500366055.3,286046947.1,N
1500366075.1,286046947.3,N
1500366095.9,286046947.7,N
1500366115.7,286046947.3,N
1500366135.5,286046946.9,N
1500366155.4,286046945.4,N
1500366175.2,286046944.9,N
1500366195.0,286046945.1,N
1500366195.9,286046945.1,N
1500366215.8,286046944.4,N
1500366235.6,286046942.9,N
1500366255.4,286046943.6,N
1500366275.3,286046940.6,N
1500366295.1,286046940.1,N
1500366296.0,286046940.1,N
1500366315.8,286046942.0,N
1500366335.7,286046940.3,N
1500366355.5,286046936.2,N
1500366375.3,286046939.9,N
1500366395.1,286046937.9,N
1500366415.9,286046938.1,N
1500366435.7,286046934.4,N
1500366455.5,286046936.6,N
1500366475.4,286046936.7,N
1500366495.2,286046935.6,N
1500366515.0,286046934.8,N
1500366515.9,286046934.8,N
1500366535.8,286046933.4,N
1500366555.6,286046931.1,N
1500366575.4,286046933.0,N
1500366595.3,286046930.9,N
1500366615.1,286046933.3,N
1500366635.8,286046933.9,N
1500366655.7,286046931.3,N
1500366675.5,286046932.3,N
1500366695.3,286046931.3,N
1500366715.2,286046931.9,N
1500366735.9,286046929.6,N
1500366755.7,286046930.5,N
1500366775.6,286046929.8,N
1500366795.4,286046932.2,N
1500366815.2,286046931.9,N
1500366835.1,286046932.4,N
1500366836.0,286046932.4,N
1500366855.8,286046929.3,N
1500366875.6,286046932.3,N
1500366895.5,286046932.3,N
1500366915.3,286046930.3,N
1500366935.1,286046930.2,N
1500366955.9,286046929.8,N
1500366975.7,286046927.9,N
1500366995.5,286046929.1,N
1500367015.4,286046926.3,N
1500367035.2,286046927.4,N
1500367055.0,286046924.9,N
1500367055.9,286046924.9,N
1500367075.8,286046923.9,N
1500367095.6,286046921.8,N
1500367115.4,286046924.3,N
1500367135.2,286046922.2,N
1500367155.1,286046922.1,N
1500367156.0,286046922.1,N
1500367175.8,286046922.4,N
1500367195.6,286046922.8,N
1500367215.5,286046920.1,N
1500367235.3,286046920.7,N
1500367255.1,286046922.0,N
1500367275.9,286046923.9,N
1500367295.7,286046921.3,N
1500367315.5,286046924.2,N
1500367335.4,286046923.8,N
1500367355.2,286046921.3,N
1500367375.0,286046921.7,N
1500367375.9,286046921.7,N
1500367395.8,286046921.9,N
1500367415.6,286046919.9,N
1500367435.4,286046922.5,N
1500367455.3,286046922.1,N
1500367475.1,286046922.6,N
1500367495.8,286046921.0,N
1500367515.7,286046918.3,N
1500367535.5,286046916.6,N
1500367555.3,286046915.8,N
1500367575.2,286046914.0,N
1500367595.9,286046914.4,N
1500367615.7,286046914.5,N
1500367635.6,286046916.4,N
1500367655.4,286046914.0,N
1500367675.2,286046916.0,N
1500367695.1,286046916.0,N
1500367696.0,286046916.0,N
1500367715.8,286046913.5,N
1500367735.6,286046913.8,N
1500367755.5,286046914.5,N
1500367775.3,286046912.9,N
1500367795.1,286046910.7,N
1500367815.8,286046908.5,N
1500367835.7,286046906.9,N
1500367855.5,286046908.4,N
1500367875.3,286046905.3,N
1500367895.2,286046909.1,N
1500367915.0,286046909.9,N
1500367915.9,286046909.9,N
1500367935.7,286046908.2,N
1500367955.6,286046908.3,N
1500367975.4,286046904.0,N
1500367995.2,286046903.7,N
1500368015.1,286046902.2,N
1500368016.0,286046902.2,N
1500368035.8,286046902.2,N
1500368055.6,286046903.4,N
1500368075.5,286046901.1,N
1500368095.3,286046899.6,N
1500368115.1,286046899.0,N
1500368135.9,286046901.6,N
1500368155.7,286046899.1,N
1500368175.5,286046900.9,N
1500368195.4,286046899.2,N
1500368215.2,286046898.3,N
1500368235.0,286046898.4,N
1500368235.9,286046898.4,N
1500368255.8,286046896.4,N
1500368275.6,286046896.4,N
1500368295.4,286046896.5,N
1500368315.3,286046896.2,N
1500368335.1,286046894.5,N
1500368336.0,286046894.5,N
1500368355.8,286046892.6,N
1500368375.7,286046893.6,N
1500368395.5,286046891.4,N
